Wind_Speed
24 24 24 25 26 26 31 35 39 38 37 39 37 30 29 30 32 29 25 22 22 20 19 22 23 19 16 14 14 15 14 14 13 8 8 10 9 10 10 11 11 11 13
23 23 26 25 27 29 30 35 38 36 36 34 30 29 30 32 33 28 27 21 21 23 22 23 23 19 19 16 15 15 14 14 12 12 9 9 9 9 8 9 9 10 11
27 27 26 26 31 33 31 34 37 33 32 31 28 29 31 32 30 27 24 21 22 23 23 24 22 19 17 15 16 15 14 13 12 10 9 7 8 9 11 11 9 9 11
28 29 30 28 29 35 32 33 33 32 30 30 32 31 30 28 27 24 21 23 23 23 23 21 19 18 16 16 16 15 14 14 12 12 10 9 8 10 10 9 11 11 12
29 30 31 29 31 31 31 31 31 30 32 33 33 30 28 27 25 23 24 24 24 24 24 23 18 16 18 17 15 15 16 14 12 13 12 10 11 12 13 11 11 11 13
31 32 30 28 29 30 29 30 30 31 33 33 33 31 29 25 27 29 26 24 23 25 26 24 16 19 19 18 18 18 16 14 15 14 15 13 13 14 15 12 10 14 11
32 30 29 28 27 29 23 30 32 35 36 37 34 30 28 26 29 27 25 24 25 24 25 21 17 17 20 18 17 18 18 18 18 15 14 14 16 15 17 17 13 13 10
31 30 28 26 27 27 21 32 34 36 38 37 35 31 29 27 26 26 27 25 24 25 19 18 19 18 20 16 14 15 15 15 18 17 17 16 14 16 16 19 16 16 14
30 28 26 22 30 29 23 34 36 35 35 32 30 30 29 28 28 29 31 24 23 18 17 17 17 17 17 17 14 13 12 17 15 14 13 14 13 12 17 17 19 20 13
27 27 24 27 32 25 29 35 37 35 36 32 29 28 29 29 33 35 30 24 20 18 17 17 18 14 15 14 14 15 14 16 13 14 13 14 14 14 13 12 14 21 18
26 25 21 33 33 23 35 33 35 35 34 33 32 32 29 31 38 34 29 21 19 19 17 14 15 17 14 15 15 13 12 12 12 12 14 15 17 15 14 14 11 12 15
27 26 34 43 24 29 33 33 35 36 36 36 36 33 34 38 35 33 31 21 21 17 15 14 15 16 15 15 15 12 11 12 14 15 13 12 18 18 17 17 14 13 15
26 26 27 16 14 24 26 29 30 33 36 35 37 39 36 34 33 33 30 24 18 13 12 13 15 16 16 15 14 14 13 14 14 14 14 13 11 12 16 17 17 17 15
25 21 13 2 5 13 24 26 30 31 36 41 40 40 36 33 35 32 28 23 19 19 15 13 15 16 15 14 15 15 14 15 16 14 14 12 9 13 16 16 16 14 13
19 17 9 10 8 18 23 27 31 35 39 44 41 34 31 29 30 30 27 23 18 18 15 13 17 17 16 16 17 16 12 11 10 10 12 13 15 16 16 14 14 11 10
15 12 12 13 20 26 30 31 31 34 37 32 29 27 25 25 28 26 23 23 22 17 15 15 18 18 19 19 19 15 10 11 11 12 15 16 18 18 16 15 16 11 11
11 7 18 24 30 35 37 38 38 33 32 31 30 28 24 23 24 23 21 21 19 17 12 16 18 20 22 21 18 13 9 9 12 12 13 14 14 15 14 12 11 10 9
13 10 30 34 32 31 28 35 31 29 32 30 25 22 20 22 23 22 23 22 20 17 14 16 17 19 25 21 18 11 10 9 10 11 12 12 13 13 14 13 11 12 13
17 18 31 32 31 30 27 26 26 26 25 29 27 25 24 23 22 20 19 16 19 17 15 15 17 20 23 22 16 10 11 10 10 11 12 12 11 11 14 13 10 11 11
20 23 24 32 31 27 25 28 27 24 26 24 27 30 28 26 24 21 17 17 18 17 15 14 18 20 20 17 16 13 11 12 11 11 10 10 10 11 11 11 12 12 12
29 25 27 27 26 28 29 28 24 25 24 22 28 28 23 16 16 17 16 15 15 16 16 17 19 18 20 15 14 15 13 10 9 9 9 9 10 9 11 11 10 11 11
31 32 28 28 25 27 24 24 25 24 23 27 31 28 22 15 16 15 15 15 14 16 17 19 18 18 17 13 14 12 11 10 10 9 10 10 8 6 6 8 9 10 11
29 28 29 26 24 25 24 23 24 23 24 32 30 25 17 19 16 19 19 18 16 17 20 18 20 20 18 13 12 11 10 9 9 9 9 9 8 8 9 9 9 10 10
27 24 25 24 24 23 25 27 27 26 29 31 27 24 20 19 20 18 16 17 18 18 19 19 18 21 19 16 12 13 11 10 10 9 9 9 9 9 9 10 8 10 10
25 25 24 24 26 27 27 27 27 30 35 33 30 25 21 22 19 15 16 15 16 18 18 18 17 16 16 15 15 15 13 10 9 8 7 8 9 10 9 10 11 9 9
23 21 25 26 25 26 28 30 32 34 36 32 30 24 25 22 19 16 18 16 17 18 17 16 15 13 14 14 13 13 13 12 11 9 6 5 5 6 9 9 9 9 8
Wind_Direction
302 292 293 288 283 275 270 257 251 252 253 245 239 231 229 223 218 223 217 215 226 212 212 220 213 210 220 224 228 229 235 238 238 216 223 248 249 245 251 239 240 233 234
292 285 288 286 283 278 271 257 248 246 245 234 219 223 217 214 218 220 216 210 214 210 208 210 214 212 221 219 225 228 231 231 226 239 227 238 232 247 246 235 231 231 216
292 287 279 283 284 278 271 259 245 240 236 224 216 210 205 208 213 209 220 206 205 205 206 211 211 210 213 223 223 228 226 224 229 233 225 214 225 216 226 232 216 208 204
290 284 278 279 283 275 272 257 241 233 229 221 212 205 199 199 201 204 204 201 200 200 208 205 203 207 215 219 222 219 216 218 218 223 219 223 226 211 225 216 209 199 197
287 282 276 278 282 279 266 252 235 228 220 211 199 194 194 194 199 196 197 196 193 201 200 204 203 208 214 215 215 219 220 215 216 225 217 210 222 208 210 210 201 194 194
287 281 275 279 279 276 256 242 224 217 207 195 193 189 189 194 200 197 192 192 195 200 199 204 206 223 219 221 213 215 218 216 220 228 226 221 229 222 206 201 199 186 188
287 279 274 277 277 266 247 231 216 205 195 192 189 186 190 187 207 207 203 190 191 198 200 204 202 208 216 221 226 228 229 229 226 224 231 225 225 229 211 197 194 178 197
279 276 276 279 278 263 249 217 207 198 193 189 188 184 184 191 202 192 192 193 195 196 194 201 202 204 213 214 218 225 228 237 236 237 240 233 223 222 210 210 209 190 211
276 276 276 278 255 275 233 207 199 191 185 184 180 175 184 193 184 186 183 185 188 188 195 197 199 202 212 220 210 213 217 230 241 234 223 208 209 198 194 203 200 192 197
277 281 273 277 247 262 207 197 192 187 181 175 172 173 178 183 180 182 179 175 182 184 186 194 204 204 217 213 207 224 227 233 219 216 215 201 192 185 192 204 213 201 190
285 289 276 258 252 234 196 188 182 172 167 166 169 176 177 182 176 181 174 179 187 186 192 194 207 217 219 214 209 222 211 217 204 196 194 196 190 186 186 192 202 206 199
280 272 265 252 216 180 172 165 167 172 168 170 177 168 172 175 177 177 178 176 182 186 192 201 209 210 212 208 205 200 195 188 192 189 188 203 199 191 194 190 185 194 204
276 278 300 352 136 163 173 172 173 173 175 170 167 166 167 169 175 179 186 192 193 186 189 200 203 203 201 201 201 194 196 193 199 202 203 203 209 209 208 202 204 209 210
288 302 297 292 168 172 178 178 178 179 169 166 167 164 166 172 178 182 187 191 195 189 193 184 190 192 193 196 192 195 193 196 197 190 191 185 187 200 203 200 203 210 216
291 305 294 198 205 180 179 182 185 183 182 168 163 166 166 171 178 185 189 189 177 181 183 189 192 189 186 182 175 161 165 180 179 199 194 190 191 196 192 187 193 192 201
283 278 198 193 178 171 165 156 156 159 158 158 159 164 167 176 181 186 190 187 180 176 181 193 188 184 181 174 167 157 166 169 179 179 185 185 186 187 195 198 201 187 202
262 260 192 176 166 154 150 149 147 152 159 159 160 168 174 174 176 180 178 171 173 180 183 191 190 184 181 177 174 165 166 167 176 177 185 185 186 192 197 191 198 205 197
235 189 161 161 140 152 150 147 149 149 149 148 154 159 163 169 170 169 168 173 176 181 191 192 187 186 181 178 171 168 165 160 177 184 184 189 193 200 200 201 203 223 222
190 160 160 147 145 143 146 146 149 147 144 149 150 151 153 157 159 164 170 178 176 178 182 180 186 182 181 180 172 165 165 168 170 179 180 184 192 203 211 213 213 208 214
188 169 140 143 142 144 145 145 145 144 143 145 150 151 151 155 159 165 172 174 175 178 177 176 173 176 175 181 184 191 182 180 179 183 195 201 205 213 213 228 224 226 227
175 175 164 152 149 150 153 149 148 148 150 151 153 152 145 153 159 161 162 165 174 178 170 174 170 175 183 179 181 177 179 176 183 189 192 197 211 217 214 215 226 223 223
162 158 158 155 151 147 149 152 152 150 150 152 154 148 139 147 144 148 157 162 169 175 170 172 172 175 169 172 177 170 178 182 189 190 190 194 191 189 208 216 223 227 235
152 152 150 149 149 155 148 150 151 149 150 153 152 147 138 147 150 155 156 158 162 163 164 171 173 172 175 168 169 173 175 175 189 187 187 194 194 208 224 234 241 249 233
143 140 140 144 145 147 150 153 151 150 153 155 153 156 159 159 152 150 151 153 160 162 165 169 174 185 191 189 186 187 180 180 188 196 203 213 224 231 230 253 241 237 243
137 138 139 144 153 155 160 161 163 161 161 159 165 170 165 158 151 152 155 155 157 161 163 167 176 184 192 201 195 192 191 196 199 215 223 230 225 237 228 253 249 253 225
132 141 146 150 154 156 157 157 160 163 160 164 168 164 163 156 150 152 156 153 154 155 159 160 165 170 176 183 196 203 213 221 224 228 216 209 227 224 246 235 233 231 222
Height
1414 1410 1408 1406 1405 1406 1406 1405 1407 1411 1412 1416 1421 1424 1426 1431 1436 1441 1446 1449 1448 1452 1455 1458 1461 1462 1469 1471 1472 1474 1475 1477 1475 1475 1476 1474 1474 1475 1475 1475 1476 1477 1478
1411 1408 1402 1400 1396 1396 1397 1395 1399 1402 1405 1408 1414 1416 1420 1425 1430 1434 1440 1440 1443 1448 1449 1453 1457 1457 1463 1467 1469 1470 1472 1473 1472 1472 1472 1471 1471 1473 1473 1473 1474 1474 1475
1401 1399 1397 1393 1387 1386 1387 1387 1390 1394 1397 1402 1406 1410 1414 1418 1423 1430 1431 1434 1440 1443 1444 1448 1451 1455 1459 1464 1465 1466 1468 1469 1468 1470 1469 1469 1469 1471 1471 1471 1472 1473 1474
1393 1390 1386 1384 1380 1377 1378 1379 1381 1385 1388 1393 1399 1404 1408 1412 1418 1423 1425 1432 1435 1437 1440 1443 1447 1451 1456 1459 1461 1462 1464 1465 1465 1467 1467 1467 1467 1468 1469 1470 1471 1472 1473
1382 1379 1376 1374 1370 1369 1368 1368 1370 1374 1380 1387 1392 1397 1402 1406 1411 1415 1422 1427 1429 1431 1436 1439 1444 1448 1452 1454 1458 1458 1460 1460 1462 1464 1464 1464 1464 1465 1466 1468 1469 1470 1473
1372 1368 1366 1363 1359 1357 1357 1359 1363 1369 1374 1380 1384 1388 1392 1399 1405 1409 1417 1421 1423 1428 1431 1436 1440 1443 1446 1450 1452 1453 1456 1457 1458 1460 1460 1461 1461 1462 1464 1466 1468 1469 1472
1362 1358 1356 1351 1348 1348 1347 1351 1355 1360 1366 1371 1376 1380 1386 1394 1398 1405 1411 1416 1421 1424 1429 1433 1437 1440 1443 1446 1448 1450 1451 1452 1454 1456 1456 1458 1458 1458 1461 1464 1467 1469 1472
1351 1347 1344 1339 1337 1338 1337 1343 1348 1353 1358 1363 1368 1374 1381 1387 1393 1401 1409 1414 1418 1422 1427 1430 1434 1437 1440 1443 1445 1446 1448 1448 1450 1451 1451 1453 1455 1456 1458 1462 1465 1467 1469
1339 1337 1332 1328 1327 1327 1329 1336 1341 1347 1352 1359 1364 1369 1374 1381 1390 1398 1406 1411 1416 1421 1425 1428 1431 1434 1436 1439 1441 1443 1445 1445 1445 1446 1448 1450 1451 1454 1457 1460 1462 1465 1467
1332 1327 1321 1319 1322 1318 1323 1329 1334 1339 1344 1352 1360 1366 1371 1378 1387 1396 1403 1409 1415 1419 1423 1425 1428 1431 1432 1435 1438 1439 1440 1441 1442 1444 1446 1448 1450 1452 1456 1459 1461 1462 1466
1324 1317 1312 1309 1312 1309 1316 1322 1328 1335 1340 1348 1355 1362 1369 1376 1385 1393 1401 1408 1412 1417 1420 1422 1425 1427 1429 1432 1435 1436 1437 1437 1439 1442 1444 1446 1449 1452 1455 1458 1460 1463 1464
1315 1313 1307 1292 1300 1305 1310 1317 1324 1330 1335 1343 1351 1359 1367 1376 1384 1392 1400 1406 1409 1414 1417 1419 1421 1424 1427 1429 1431 1433 1434 1436 1438 1441 1443 1445 1448 1450 1454 1457 1460 1462 1463
1308 1298 1281 1272 1291 1300 1308 1315 1322 1330 1335 1342 1350 1357 1367 1376 1385 1392 1398 1403 1407 1410 1414 1414 1418 1421 1425 1427 1429 1431 1434 1435 1438 1440 1442 1444 1443 1447 1452 1456 1459 1461 1463
1298 1293 1292 1289 1294 1301 1310 1315 1321 1328 1336 1342 1350 1359 1367 1376 1382 1389 1395 1400 1404 1408 1410 1413 1416 1419 1422 1424 1427 1429 1432 1434 1437 1439 1441 1443 1445 1448 1451 1454 1457 1459 1462
1294 1289 1290 1294 1299 1304 1311 1317 1322 1329 1334 1340 1352 1360 1368 1375 1380 1386 1392 1397 1402 1405 1408 1412 1414 1417 1419 1422 1426 1429 1431 1434 1436 1437 1440 1442 1443 1446 1450 1453 1455 1458 1461
1297 1295 1295 1297 1300 1305 1311 1317 1326 1332 1340 1347 1356 1364 1371 1375 1379 1386 1391 1395 1399 1404 1407 1410 1412 1415 1419 1422 1426 1429 1432 1433 1435 1437 1438 1441 1443 1446 1449 1451 1454 1456 1459
1298 1298 1296 1300 1304 1308 1313 1320 1326 1339 1345 1350 1357 1363 1369 1374 1380 1385 1389 1394 1399 1403 1406 1408 1411 1414 1418 1422 1425 1429 1431 1432 1434 1436 1438 1440 1443 1446 1448 1451 1454 1455 1456
1298 1299 1299 1302 1307 1313 1319 1324 1333 1341 1345 1351 1359 1365 1370 1375 1379 1383 1388 1393 1398 1401 1404 1406 1410 1413 1417 1421 1425 1429 1430 1431 1433 1435 1437 1439 1442 1445 1447 1449 1451 1452 1453
1297 1300 1301 1306 1311 1318 1324 1333 1340 1347 1350 1354 1360 1366 1371 1375 1380 1385 1389 1393 1396 1400 1403 1406 1409 1412 1416 1421 1424 1427 1429 1431 1433 1435 1437 1439 1441 1443 1445 1447 1449 1450 1452
1296 1302 1304 1308 1314 1322 1329 1336 1343 1347 1351 1358 1362 1365 1370 1376 1381 1385 1389 1392 1396 1399 1402 1405 1409 1412 1417 1421 1423 1426 1428 1430 1432 1434 1436 1438 1440 1441 1443 1445 1446 1448 1449
1297 1303 1308 1314 1321 1325 1332 1338 1344 1350 1356 1360 1363 1369 1374 1380 1383 1386 1389 1392 1395 1399 1401 1405 1409 1413 1416 1420 1422 1425 1427 1431 1432 1434 1436 1437 1438 1440 1441 1443 1444 1446 1448
1297 1304 1310 1316 1321 1326 1333 1339 1345 1352 1357 1359 1365 1371 1377 1381 1384 1387 1389 1392 1395 1398 1401 1405 1409 1413 1416 1420 1422 1425 1428 1430 1431 1433 1434 1436 1438 1440 1441 1442 1443 1444 1446
1301 1307 1312 1317 1323 1328 1335 1341 1346 1352 1357 1361 1367 1373 1379 1381 1383 1385 1388 1392 1395 1398 1401 1405 1409 1413 1417 1419 1422 1424 1427 1430 1431 1432 1434 1436 1438 1440 1440 1441 1441 1442 1443
1304 1309 1314 1319 1326 1330 1335 1340 1346 1352 1357 1364 1369 1373 1378 1381 1384 1387 1390 1393 1396 1400 1403 1406 1409 1412 1416 1419 1421 1424 1426 1428 1430 1432 1433 1435 1436 1437 1438 1439 1438 1439 1439
1308 1313 1318 1321 1324 1329 1334 1340 1346 1353 1359 1365 1369 1374 1379 1383 1386 1389 1392 1395 1398 1401 1404 1407 1410 1413 1415 1418 1421 1424 1426 1428 1430 1431 1432 1433 1434 1435 1436 1437 1438 1437 1438
1311 1314 1318 1322 1327 1332 1337 1343 1348 1354 1359 1365 1372 1377 1381 1385 1389 1391 1395 1397 1400 1402 1405 1408 1411 1413 1416 1418 1421 1424 1426 1428 1429 1430 1431 1432 1433 1433 1433 1435 1435 1436 1436